User: anonymous   Login
Location: Ashtead
(51.3000°N, 0.3000°W)
Time: 12:28:52
(UTC+00:00)
Language:

GP-B - Orbit

View from above orbital plane
View from above orbital plane
View from above satellite
View from above satellite

Ground track
Ground track

The orbit data is extracted from the following two-line orbital elements,

1 28230U 04014A   24056.94790601  .00001439  00000-0  18628-3 0  9992
2 28230  89.8191  67.5694 0003399  84.3384 275.8227 14.80434450527600
Epoch (UTC): 25 February 2024 22:44:59
Eccentricity: 0.0003399
inclination: 89.8191°
perigee height: 625 km
apogee height: 630 km
right ascension of ascending node: 67.5694°
argument of perigee: 84.3384°
revolutions per day: 14.80434450
mean anomaly at epoch: 275.8227°
orbit number at epoch: 52760

The dashed part of the orbit path shows where the satellite is in the earth's shadow,  

DLR